TimeCDT,TemperatureF,Dew PointF,Humidity,Sea Level PressureIn,VisibilityMPH,Wind Direction,Wind SpeedMPH,Gust SpeedMPH,PrecipitationIn,Events,Conditions,WindDirDegrees,DateUTC
12:15 AM,48.4,46.2,92,30.16,10.0,Calm,Calm,-,N/A,,Clear,0,2013-10-09 05:15:00
12:35 AM,48.2,46.2,93,30.15,10.0,Calm,Calm,-,N/A,,Clear,0,2013-10-09 05:35:00
12:55 AM,47.5,45.5,93,30.15,10.0,Calm,Calm,-,N/A,,Clear,0,2013-10-09 05:55:00
1:15 AM,46.9,45.0,93,30.14,10.0,Calm,Calm,-,N/A,,Clear,0,2013-10-09 06:15:00
1:35 AM,47.1,45.1,93,30.15,10.0,Calm,Calm,-,N/A,,Clear,0,2013-10-09 06:35:00
1:55 AM,46.6,44.6,93,30.14,10.0,Calm,Calm,-,N/A,,Clear,0,2013-10-09 06:55:00
2:15 AM,47.1,45.0,92,30.14,10.0,Calm,Calm,-,N/A,,Clear,0,2013-10-09 07:15:00
2:35 AM,46.0,44.1,93,30.14,10.0,Calm,Calm,-,N/A,,Clear,0,2013-10-09 07:35:00
2:55 AM,45.7,43.9,93,30.14,7.0,Calm,Calm,-,N/A,,Clear,0,2013-10-09 07:55:00
3:15 AM,45.5,43.7,93,30.14,5.0,Calm,Calm,-,N/A,,Clear,0,2013-10-09 08:15:00
3:35 AM,45.5,43.9,94,30.13,7.0,Calm,Calm,-,N/A,,Clear,0,2013-10-09 08:35:00
3:55 AM,45.1,43.5,94,30.13,10.0,ENE,3.5,-,N/A,,Clear,70,2013-10-09 08:55:00
4:15 AM,45.0,43.3,94,30.14,10.0,Calm,Calm,-,N/A,,Clear,0,2013-10-09 09:15:00
4:35 AM,44.6,43.0,94,30.14,10.0,Calm,Calm,-,N/A,,Clear,0,2013-10-09 09:35:00
4:55 AM,44.6,43.0,94,30.15,10.0,Calm,Calm,-,N/A,,Clear,0,2013-10-09 09:55:00
5:15 AM,44.2,42.8,95,30.15,5.0,Calm,Calm,-,N/A,,Clear,0,2013-10-09 10:15:00
5:35 AM,44.6,43.0,94,30.16,7.0,East,3.5,-,N/A,,Clear,80,2013-10-09 10:35:00
5:55 AM,44.4,42.8,94,30.16,10.0,East,3.5,-,N/A,,Clear,80,2013-10-09 10:55:00
6:15 AM,43.9,42.3,94,30.16,10.0,Calm,Calm,-,N/A,,Clear,0,2013-10-09 11:15:00
6:35 AM,43.9,42.3,94,30.17,10.0,Calm,Calm,-,N/A,,Clear,0,2013-10-09 11:35:00
6:55 AM,43.7,41.9,93,30.17,7.0,Calm,Calm,-,N/A,,Clear,0,2013-10-09 11:55:00
7:15 AM,43.9,42.3,94,30.17,5.0,Calm,Calm,-,N/A,,Clear,0,2013-10-09 12:15:00
7:35 AM,45.7,44.1,94,30.18,5.0,Calm,Calm,-,N/A,,Clear,0,2013-10-09 12:35:00
7:55 AM,50.2,48.4,94,30.19,10.0,Calm,Calm,-,N/A,,Clear,0,2013-10-09 12:55:00
8:15 AM,52.7,49.5,89,30.19,10.0,ENE,3.5,-,N/A,,Clear,70,2013-10-09 13:15:00
8:35 AM,55.2,50.9,85,30.19,10.0,East,4.6,-,N/A,,Clear,90,2013-10-09 13:35:00
8:55 AM,57.6,51.6,81,30.20,10.0,East,3.5,-,N/A,,Clear,100,2013-10-09 13:55:00
9:15 AM,59.7,52.2,76,30.20,10.0,ENE,4.6,-,N/A,,Clear,70,2013-10-09 14:15:00
9:35 AM,61.7,51.8,70,30.20,10.0,ESE,4.6,-,N/A,,Clear,120,2013-10-09 14:35:00
9:55 AM,63.5,52.0,66,30.20,10.0,East,3.5,-,N/A,,Clear,90,2013-10-09 14:55:00
10:15 AM,64.9,52.9,65,30.20,10.0,Calm,Calm,-,N/A,,Clear,0,2013-10-09 15:15:00
10:35 AM,67.1,52.5,59,30.20,10.0,Calm,Calm,-,N/A,,Clear,0,2013-10-09 15:35:00
10:55 AM,68.7,52.3,56,30.20,10.0,Calm,Calm,-,N/A,,Clear,0,2013-10-09 15:55:00
11:15 AM,70.2,52.0,52,30.20,10.0,Calm,Calm,-,N/A,,Clear,0,2013-10-09 16:15:00
11:35 AM,71.2,49.8,47,30.19,10.0,Calm,Calm,-,N/A,,Clear,0,2013-10-09 16:35:00
11:55 AM,72.0,50.2,46,30.19,10.0,NNE,4.6,-,N/A,,Clear,20,2013-10-09 16:55:00
12:15 PM,73.4,50.0,44,30.18,10.0,Calm,Calm,-,N/A,,Clear,0,2013-10-09 17:15:00
12:35 PM,73.8,50.5,44,30.17,10.0,Calm,Calm,-,N/A,,Clear,0,2013-10-09 17:35:00
12:55 PM,74.8,51.6,44,30.16,10.0,SSW,3.5,-,N/A,,Clear,210,2013-10-09 17:55:00
1:15 PM,74.7,51.8,45,30.16,10.0,Calm,Calm,-,N/A,,Clear,0,2013-10-09 18:15:00
1:35 PM,75.2,51.8,44,30.15,10.0,Calm,Calm,-,N/A,,Clear,0,2013-10-09 18:35:00
1:55 PM,76.3,52.0,43,30.14,-9999.0,SSE,3.5,-,N/A,,Unknown,150,2013-10-09 18:55:00
2:15 PM,75.9,52.2,43,30.14,10.0,WNW,3.5,-,N/A,,Clear,300,2013-10-09 19:15:00
2:35 PM,76.8,52.9,43,30.13,10.0,Calm,Calm,-,N/A,,Clear,0,2013-10-09 19:35:00
2:55 PM,77.7,53.4,43,30.13,10.0,South,4.6,-,N/A,,Clear,190,2013-10-09 19:55:00
3:15 PM,77.0,53.1,43,30.13,10.0,Calm,Calm,-,N/A,,Clear,0,2013-10-09 20:15:00
3:55 PM,77.7,54.3,44,30.12,10.0,SE,3.5,-,N/A,,Clear,130,2013-10-09 20:55:00
4:15 PM,77.9,54.0,43,30.12,10.0,ESE,3.5,-,N/A,,Clear,120,2013-10-09 21:15:00
4:35 PM,77.0,54.1,45,30.12,10.0,Calm,Calm,-,N/A,,Clear,0,2013-10-09 21:35:00
4:55 PM,77.4,54.9,46,30.12,10.0,SE,5.8,-,N/A,,Clear,140,2013-10-09 21:55:00
5:15 PM,77.0,55.2,47,30.11,10.0,SSE,5.8,-,N/A,,Clear,150,2013-10-09 22:15:00
5:35 PM,76.1,55.6,49,30.11,10.0,SSE,4.6,-,N/A,,Clear,150,2013-10-09 22:35:00
5:55 PM,73.9,56.3,54,30.11,10.0,SSE,3.5,-,N/A,,Clear,160,2013-10-09 22:55:00
6:15 PM,71.1,57.0,61,30.11,10.0,Calm,Calm,-,N/A,,Clear,0,2013-10-09 23:15:00
6:55 PM,65.1,57.2,75,30.12,10.0,Calm,Calm,-,N/A,,Clear,0,2013-10-09 23:55:00
7:15 PM,62.6,56.7,81,30.12,10.0,Calm,Calm,-,N/A,,Clear,0,2013-10-10 00:15:00
7:35 PM,60.8,56.3,85,30.12,10.0,Calm,Calm,-,N/A,,Clear,0,2013-10-10 00:35:00
7:55 PM,59.9,55.9,87,30.12,10.0,Calm,Calm,-,N/A,,Clear,0,2013-10-10 00:55:00
8:15 PM,59.0,55.6,88,30.13,10.0,Calm,Calm,-,N/A,,Clear,0,2013-10-10 01:15:00
8:35 PM,59.0,55.6,88,30.13,10.0,Calm,Calm,-,N/A,,Clear,0,2013-10-10 01:35:00
8:55 PM,58.1,55.6,91,30.13,10.0,Calm,Calm,-,N/A,,Clear,0,2013-10-10 01:55:00
9:15 PM,57.2,54.7,91,30.13,10.0,Calm,Calm,-,N/A,,Clear,0,2013-10-10 02:15:00
9:35 PM,56.8,54.3,91,30.13,10.0,Calm,Calm,-,N/A,,Clear,0,2013-10-10 02:35:00
9:55 PM,56.5,54.1,92,30.13,7.0,Calm,Calm,-,N/A,,Clear,0,2013-10-10 02:55:00
10:15 PM,56.3,54.0,92,30.13,10.0,Calm,Calm,-,N/A,,Clear,0,2013-10-10 03:15:00
10:35 PM,55.8,53.6,92,30.13,10.0,Calm,Calm,-,N/A,,Clear,0,2013-10-10 03:35:00
10:55 PM,55.6,53.1,91,30.13,10.0,Calm,Calm,-,N/A,,Clear,0,2013-10-10 03:55:00
11:15 PM,55.6,53.1,91,30.13,10.0,Calm,Calm,-,N/A,,Clear,0,2013-10-10 04:15:00
11:55 PM,55.2,52.9,92,30.13,10.0,Calm,Calm,-,N/A,,Clear,0,2013-10-10 04:55:00